EHI
11 11 10 8 7 8 8 5 2 1 1 1 1 1 1 1 2 2 2 3 5 6 6 7 8 11 14 14 12 9 8 8 10 9 8 6 5 5 7 11 12 11 10
9 8 7 7 6 7 6 4 2 1 1 1 0 0 0 0 1 1 1 2 3 5 7 9 9 10 10 10 9 8 8 9 10 10 8 6 5 4 5 9 11 10 9
6 6 6 6 6 6 5 3 3 3 2 1 0 0 0 0 0 0 0 0 1 3 7 10 10 9 8 8 8 8 8 10 10 10 8 6 5 4 4 6 8 7 6
5 6 8 7 6 5 4 3 3 3 3 2 1 0 0 0 0 0 0 0 0 1 4 7 8 8 8 9 8 8 8 8 9 9 8 7 6 6 5 5 5 4 4
5 7 9 8 5 4 4 3 3 3 3 2 1 0 0 0 0 0 0 0 0 0 1 2 4 6 7 8 9 8 7 6 7 8 7 7 8 7 7 6 4 3 3
6 7 9 8 4 3 3 3 3 3 3 2 1 0 0 0 0 0 0 0 0 0 0 0 1 3 5 7 8 8 7 5 6 7 7 7 8 8 8 7 5 3 3
6 6 7 5 3 3 3 3 4 3 2 2 2 1 0 0 0 0 0 0 0 0 0 0 0 1 3 5 6 7 7 7 7 8 8 8 8 8 7 7 6 4 3
3 4 3 2 2 2 3 3 3 3 2 2 2 1 0 0 0 0 0 0 0 0 0 0 0 0 1 4 5 5 7 8 9 9 9 10 9 8 7 7 6 4 4
2 2 2 2 2 2 2 2 2 3 2 2 1 0 0 0 0 0 0 0 0 0 0 0 0 0 1 2 2 2 4 6 8 9 10 10 9 8 7 7 6 5 4
2 3 3 3 2 1 1 1 1 2 2 1 0 0 0 0 0 0 0 0 0 0 0 0 0 0 0 1 1 0 1 2 3 6 8 9 8 7 8 8 7 6 4
3 3 3 3 3 1 0 0 1 1 1 1 0 0 0 0 0 0 0 0 0 0 0 0 0 0 0 0 0 0 0 0 0 2 3 5 6 6 7 7 7 6 5
3 3 3 3 3 2 1 0 0 1 1 0 0 0 0 0 0 0 0 0 0 0 0 0 0 0 0 0 0 0 0 0 0 0 0 2 3 3 3 4 5 6 5
3 3 3 3 3 3 1 0 0 0 0 0 0 0 0 0 0 0 0 0 0 0 0 0 0 0 0 0 0 0 0 0 0 0 0 0 1 1 1 1 2 4 5
3 3 3 3 3 3 2 1 0 0 0 0 0 0 0 0 0 0 0 0 0 0 0 0 0 0 0 0 0 0 0 0 0 0 0 0 0 0 1 0 0 2 3
3 3 3 3 3 3 2 1 0 0 0 0 0 0 0 0 0 0 0 0 0 0 0 0 0 0 0 0 0 0 0 0 0 0 0 0 0 0 0 0 0 0 1
3 3 3 3 3 3 2 1 0 0 0 0 0 0 0 0 0 0 0 0 0 0 0 0 0 0 0 0 0 0 0 0 0 0 0 0 0 0 0 0 0 0 0
3 3 3 3 3 3 3 1 0 0 0 0 0 0 0 0 0 0 0 0 0 0 0 0 0 0 0 0 0 0 0 0 0 0 0 0 0 0 0 0 0 0 0
3 3 3 3 3 3 3 2 1 0 0 0 0 0 0 0 0 0 0 0 0 0 0 0 0 0 0 0 0 0 0 0 0 0 0 0 0 0 0 0 0 0 0
2 3 3 3 3 3 3 2 1 0 0 0 0 0 0 0 0 0 0 0 0 0 0 0 0 0 0 0 0 0 0 0 0 0 0 0 0 0 0 0 0 0 0
2 3 3 3 3 3 3 2 1 0 0 0 0 0 0 0 0 0 0 0 0 0 0 0 0 0 0 0 0 0 0 0 0 0 0 0 0 0 0 0 0 0 0
2 3 3 3 3 3 2 1 0 0 0 0 0 0 0 0 0 0 0 0 0 0 0 0 0 0 0 0 0 0 0 0 0 0 0 0 0 0 0 0 0 0 0
1 2 2 3 3 3 1 0 0 0 0 0 0 0 0 0 0 0 0 0 0 0 0 0 0 0 0 0 0 0 0 0 0 0 0 0 0 0 0 0 0 0 0
0 1 1 1 2 2 1 0 0 0 0 0 0 0 0 0 0 0 0 0 0 0 0 0 0 0 0 0 0 0 0 0 0 0 0 0 0 0 0 0 0 0 0
0 0 0 0 1 1 0 0 0 0 0 0 0 0 0 0 0 0 0 0 0 0 0 0 0 0 0 0 0 0 0 0 0 0 0 0 0 0 0 0 0 0 0
0 0 0 0 0 0 0 0 0 0 0 0 0 0 0 0 0 0 0 0 0 0 0 0 0 0 0 0 0 0 0 0 0 0 0 0 0 0 0 0 0 0 0
0 0 0 0 0 0 0 0 0 0 0 0 0 0 0 0 0 0 0 0 0 0 0 0 0 0 0 0 0 0 0 0 0 0 0 0 0 0 0 0 0 0 0
Wind_Speed
2 2 2 2 2 2 2 2 2 3 3 3 3 3 3 3 4 3 3 7 8 8 9 10 10 10 10 10 11 11 11 11 12 12 11 11 11 10 10 10 11 12 12
2 2 2 2 2 2 2 2 2 2 2 2 3 3 3 3 3 3 3 5 8 9 9 9 8 9 9 9 10 10 10 11 11 11 11 11 11 11 11 11 11 11 11
3 2 2 2 2 2 2 1 1 1 1 1 2 2 2 3 3 3 3 3 3 6 8 8 8 8 8 9 9 10 10 11 11 11 11 11 11 11 11 11 11 11 12
3 3 2 2 2 1 1 1 1 1 1 1 1 2 2 2 3 3 3 3 3 3 5 8 8 8 8 8 9 9 10 10 11 11 11 11 11 11 11 11 11 11 12
3 3 2 2 2 1 1 1 1 1 1 1 2 2 2 2 3 3 3 4 3 3 3 6 8 9 9 9 9 10 10 10 11 11 11 11 11 11 11 11 11 11 12
2 2 2 2 2 2 1 1 1 0 1 1 1 2 2 2 2 3 3 3 3 3 3 4 4 5 9 9 9 10 10 10 10 11 11 11 11 11 11 11 11 11 12
2 2 1 1 2 2 2 1 1 0 0 0 1 2 3 2 2 3 3 3 3 3 3 3 3 3 3 7 8 9 10 10 10 10 11 11 10 10 10 11 11 11 11
1 2 1 1 2 2 2 1 1 1 1 1 1 1 3 4 3 3 2 2 3 2 3 3 3 3 3 2 5 9 10 11 11 11 11 11 10 10 11 11 11 11 11
1 2 2 2 1 2 1 1 1 2 1 1 1 2 1 2 3 3 2 1 1 2 2 2 3 4 4 3 3 6 9 9 11 12 12 11 11 11 12 12 12 12 11
1 1 2 2 2 1 1 1 1 1 2 1 1 1 2 3 2 3 3 2 2 2 3 3 3 4 4 4 5 7 9 9 11 11 11 11 12 12 12 13 13 12 12
1 1 2 1 1 1 1 1 0 1 1 2 1 1 1 1 2 2 3 4 3 2 2 3 3 3 3 3 4 6 9 9 10 10 11 12 12 12 12 13 13 13 13
1 1 1 1 1 1 1 1 1 1 1 1 1 1 2 1 2 2 3 3 3 3 3 3 3 3 3 3 6 8 9 9 10 10 10 11 11 12 12 12 13 13 14
0 0 0 1 1 1 1 1 1 1 1 1 1 2 2 2 2 2 2 3 3 3 2 2 3 2 3 2 4 7 8 9 9 9 10 10 10 10 11 12 13 13 12
1 1 1 1 0 0 0 0 0 1 0 1 2 2 1 2 2 2 3 2 2 2 2 3 2 3 2 2 4 6 4 8 9 9 9 9 9 10 11 11 11 11 11
1 1 1 1 0 0 0 0 0 1 1 2 2 2 2 2 2 2 2 3 3 2 3 3 3 3 3 3 4 3 4 7 9 9 9 9 9 10 10 11 12 11 11
1 1 1 1 1 0 0 0 1 1 1 2 1 1 2 2 2 2 2 2 2 3 3 3 3 3 3 3 3 2 4 6 7 8 8 9 9 9 9 10 11 11 11
1 1 1 1 0 0 0 0 1 1 1 2 2 1 2 2 2 2 2 1 2 2 3 4 2 2 2 2 2 2 3 3 3 6 7 7 8 8 8 9 10 11 11
1 1 1 0 0 0 1 1 2 1 1 1 2 2 2 2 2 2 1 1 2 2 3 4 3 2 3 2 2 2 2 2 3 5 6 7 7 8 8 8 10 10 10
1 0 0 0 0 1 1 1 2 2 2 2 1 1 2 1 2 2 2 1 1 1 2 2 3 2 2 1 1 2 2 2 3 3 5 6 7 7 7 7 8 9 10
1 1 0 1 1 1 1 2 1 1 1 1 1 1 2 1 2 2 2 2 1 1 1 1 2 2 2 2 0 1 2 2 2 3 3 4 5 6 6 7 7 9 9
1 1 0 1 1 1 1 1 1 0 0 1 1 2 2 2 3 2 1 1 1 1 1 1 2 1 2 1 1 1 2 2 2 2 1 2 2 2 3 5 7 8 8
1 0 0 1 1 1 2 1 1 1 1 1 2 3 3 3 4 4 3 1 1 1 1 1 2 2 3 2 2 2 1 1 2 2 1 2 1 2 3 3 6 7 7
1 1 1 1 1 2 2 2 2 1 1 1 2 2 2 3 3 2 3 3 3 3 2 2 2 3 3 3 2 2 1 2 3 3 1 2 2 3 3 3 6 7 7
1 2 2 2 1 2 2 2 2 1 1 2 2 2 2 3 3 2 2 2 3 3 3 2 3 4 4 3 3 3 3 1 2 2 1 2 2 2 3 3 5 6 7
2 2 2 2 2 3 3 3 2 1 1 2 2 2 2 3 4 3 1 2 4 4 4 4 4 4 4 4 3 1 1 1 2 3 1 2 2 2 2 2 3 5 6
3 2 2 3 3 3 3 3 3 1 1 2 3 3 4 4 4 3 1 2 3 4 3 3 3 4 3 3 3 2 3 2 2 2 2 2 2 1 2 2 2 2 2
Wind_Direction
198 197 197 197 206 205 206 209 215 226 231 235 240 242 235 228 225 221 230 231 229 226 223 222 219 221 225 226 223 217 213 212 210 205 204 207 208 209 207 207 206 204 201
188 182 185 196 210 208 211 206 209 214 222 233 252 251 233 229 228 223 221 232 235 234 232 229 227 226 226 226 222 216 211 211 210 208 206 207 209 209 208 207 209 206 202
182 175 175 194 214 205 195 188 197 195 223 249 265 264 248 233 226 224 220 222 232 236 230 229 230 227 229 228 224 218 214 212 212 212 210 207 208 208 208 208 210 208 206
181 171 181 197 207 179 158 165 167 179 252 266 270 275 267 252 243 228 221 223 222 227 230 228 225 226 228 229 225 220 216 216 216 214 214 212 212 210 209 211 212 211 209
183 174 185 194 181 154 154 188 162 169 204 253 259 261 266 254 248 241 234 227 219 217 219 228 227 227 226 226 225 222 219 219 218 215 213 213 213 212 213 212 214 215 213
193 175 180 190 165 143 141 170 178 197 194 224 283 299 283 268 254 237 236 236 226 221 223 229 225 229 228 225 224 224 223 220 219 218 217 215 214 215 217 216 215 215 214
182 160 141 172 154 155 170 172 158 167 262 48 39 334 319 299 268 250 233 231 237 234 224 227 224 223 232 229 224 224 225 224 223 220 217 216 214 214 216 217 217 216 215
152 147 138 159 159 143 132 148 129 143 266 99 127 45 338 333 320 288 254 228 230 230 228 228 216 212 221 223 228 222 224 225 224 222 216 215 214 218 221 221 219 219 218
145 135 142 144 148 139 158 184 159 152 217 279 153 152 165 250 299 306 286 269 240 233 240 232 220 220 215 214 226 227 224 221 221 222 220 215 214 217 221 223 222 219 217
83 125 138 144 151 150 167 211 168 175 173 245 276 205 196 190 202 301 314 302 277 256 250 249 235 230 222 215 222 226 224 221 224 224 223 220 219 219 222 223 222 220 220
7 117 140 141 149 159 171 190 184 184 183 199 215 234 253 254 205 205 282 306 311 282 262 252 244 243 237 223 221 225 224 222 223 224 225 223 222 224 224 224 224 225 224
344 22 110 131 159 171 187 201 181 179 210 213 222 208 201 213 232 212 237 269 282 283 279 265 252 247 243 235 236 230 225 221 220 220 224 224 224 226 230 229 227 229 229
316 295 105 134 155 200 200 181 165 210 222 230 238 239 227 227 217 208 222 251 268 284 289 278 262 254 247 237 246 239 229 224 222 219 221 222 224 229 234 236 234 232 232
220 224 149 126 135 158 138 125 166 226 247 246 255 247 245 251 237 222 211 220 266 289 287 276 287 263 256 247 251 249 240 235 231 225 223 225 227 232 235 237 237 235 232
179 139 106 100 125 159 186 188 239 258 252 253 259 261 264 266 254 247 231 212 205 250 275 271 273 273 259 248 252 242 239 244 240 233 231 231 232 231 233 235 234 231 229
106 106 96 97 107 138 163 80 295 276 273 280 267 280 284 277 282 270 249 235 210 208 244 257 250 263 268 262 260 248 244 251 251 240 235 231 229 230 233 235 233 232 231
129 133 150 127 125 127 291 296 276 281 280 294 292 273 278 280 292 291 275 250 232 209 239 267 266 275 268 264 280 268 256 245 253 243 236 230 229 231 235 237 232 231 233
163 172 160 126 187 256 264 240 261 258 233 266 286 295 297 304 312 292 289 272 248 223 217 258 278 274 260 258 261 265 270 256 243 246 244 243 238 235 238 238 232 228 228
141 123 106 153 266 261 267 262 246 248 246 249 263 283 290 325 317 298 296 302 281 261 220 233 263 268 272 274 286 284 277 277 267 257 248 246 244 243 242 242 236 229 226
154 172 191 221 239 251 265 268 252 264 278 279 262 253 271 290 289 286 297 297 295 304 275 251 267 274 274 276 247 272 297 287 275 277 270 259 252 251 251 249 245 236 229
182 184 174 279 272 252 272 268 234 214 275 313 302 282 277 298 302 289 282 273 296 292 277 270 275 284 282 285 265 252 264 285 281 262 261 270 259 253 255 253 250 243 234
227 213 283 264 285 292 287 240 201 204 226 272 294 302 302 307 303 300 294 266 173 214 234 238 255 250 259 244 247 243 240 284 295 284 208 270 240 246 252 241 245 241 235
212 238 267 250 256 274 278 248 225 173 212 252 267 287 308 322 327 311 305 312 311 295 239 202 228 245 246 239 232 251 240 221 239 249 207 274 266 254 257 258 252 244 235
211 230 243 246 254 277 271 240 225 191 237 260 256 248 255 291 303 293 304 320 307 303 283 246 231 243 243 238 217 220 220 238 277 271 192 240 268 261 266 262 250 240 239
221 226 235 236 242 276 274 251 225 214 257 276 270 263 252 262 284 282 297 305 310 306 299 283 261 265 267 263 241 195 201 171 284 286 223 197 252 276 281 272 266 248 242
215 222 239 240 233 251 263 246 218 187 254 287 298 291 274 271 282 276 241 254 284 285 299 320 323 321 305 293 267 209 203 198 222 267 244 188 230 263 303 281 274 274 254